Tracking 19638 objects as of 20-Apr-2019
HD Live streaming from Space Station
objects crossing your sky now

THORAD DELTA 1 DEB

Track THORAD DELTA 1 DEB now!
10-day predictions


NORAD ID: 8395
Int'l Code: 1974-089BX
Perigee: 1,311.8 km
Apogee: 1,498.7 km
Inclination: 100.6 °
Period: 113.7 minutes
Semi major axis: 7776 km
RCS: 0.0263 m2 (small)
Launch date: November 15, 1974
Source: United States (US)
Launch site: AIR FORCE WESTERN TEST RANGE (AFWTR)

Note: This is SATELLITE DEBRIS
aabbcc
Your satellite tracking list
Your tracking list is empty




NASA's NSSDC Master Catalog

Two Line Element Set (TLE):
1  8395U 74089BX  19109.24209319  .00000334  00000-0  19276-2 0  9990
2  8395 100.5984 209.6390 0120218 159.9020 229.6877 12.66039924 28332
Source of the keplerian elements: AFSPC